Location: Breux
(46.3269°N, 3.2993°E)
Time: 10:01:33
(UTC+00:00)

Cosmos 1758 Rocket - Pass Details

Date: 09 April 2020
Orbit: 603 x 635 km, 82.5° (Epoch: 04 June)

Event Time Altitude Azimuth Distance (km) Brightness Sun altitude
Rises 19:17:52 0° 346° (NNW) 2,878 7.5 -9.2°
Reaches altitude 10° 19:20:08 10° 342° (NNW) 1,965 6.7 -9.6°
Maximum altitude 19:24:21 53° 266° (W) 748 4.4 -10.3°
Drops below altitude 10° 19:28:32 10° 190° (S) 1,943 6.0 -10.9°
Sets 19:30:45 0° 185° (S) 2,841 6.8 -11.3°
